Location: Unspecified
(43.4354°N, 0.0000°E)
Time: 04:31:13
(UTC+00:00)

Transit 2A - Pass Details

Date: 24 June 2019
Orbit: 596 x 962 km, 66.7° (Epoch: 16 August)

Event Time Altitude Azimuth Distance (km) Brightness Sun altitude
Rises 06:17:46 0° 335° (NNW) 3,515 9.3 18.5°
Reaches altitude 10° 06:21:59 10° 2° (N) 2,491 8.9 19.3°
Maximum altitude 06:24:30 13° 28° (NNE) 2,235 9.2 19.7°
Drops below altitude 10° 06:26:56 10° 55° (NE) 2,377 10.1 20.2°
Sets 06:30:45 0° 84° (E) 3,208 10.8 20.8°
